Weather History for Jefferson, NC

Change the Weather History Date:

Tuesday, January 26, 2010

  Actual Average Record
Temperature  
Mean Temperature 29 °F -  
Max Temperature 32 °F 42 °F 65 °F (1989)
Min Temperature 26 °F 20 °F 7 °F (1968)
Degree Days  
Heating Degree Days 36    
Moisture  
Dew Point 21 °F    
Average Humidity 73    
Maximum Humidity 86    
Minimum Humidity 64    
Precipitation  
Precipitation 0.00 in - - ()
Sea Level Pressure  
Sea Level Pressure 29.77 in    
Wind  
Wind Speed 14 mph (West)    
Max Wind Speed 23 mph    
Max Gust Speed 40 mph    
Visibility 7 miles    
Events Snow    
Averages and records for this station are not official NWS values.
T = Trace of Precipitation, MM = Missing Value Source: NWS Daily Summary

Daily Weather History Graph

Daily Weather History Graph

Search for Another Location

Airport:

Trip Planner

Search our weather history database for the weather conditions in past years. The results will help you decide how hot, cold, wet, or windy it might be!

Date:

Astronomy

Jan. 26, 2010 Rise Set
Actual Time 7:31 AM EST 5:45 PM EST
Civil Twilight 7:04 AM EST 6:12 PM EST
Nautical Twilight 6:32 AM EST 6:44 PM EST
Astronomical Twilight 6:02 AM EST 7:14 PM EST
Moon 1:48 PM EST (1/26) 4:09 AM EST (1/26)
Length of Visible Light 11h 08m
Length of Day
10h 13m
Waxing Gibbous, 83% of the Moon is Illuminated
Jan 26
Waxing Gibbous
Jan 30
Full
Feb 5
Last Quarter
Feb 13
New
Feb 21
First Quarter

Hourly Weather History & Observations

Time (EST) Temp. Windchill Dew Point Humidity Pressure Visibility Wind Dir Wind Speed Gust Speed Precip Events Conditions
12:02 AM 30.2 °F 18.9 °F 23.0 °F 75% 29.65 in 10.0 mi West 16.1 mph 24.2 mph N/A Snow Light Snow
12:22 AM 30.2 °F 20.8 °F 23.0 °F 75% 29.65 in 10.0 mi NW 11.5 mph 27.6 mph N/A Snow Light Snow
12:42 AM 30.2 °F 17.4 °F 21.2 °F 69% 29.66 in 10.0 mi West 20.7 mph 40.3 mph N/A   Overcast
1:02 AM 30.2 °F 16.8 °F 21.2 °F 69% 29.65 in 10.0 mi West 23.0 mph 34.5 mph N/A   Overcast
1:22 AM 30.2 °F 18.5 °F 23.0 °F 75% 29.65 in 10.0 mi West 17.3 mph 29.9 mph N/A   Overcast
1:42 AM 30.2 °F 18.5 °F 23.0 °F 75% 29.64 in 10.0 mi West 17.3 mph 29.9 mph N/A   Overcast
2:02 AM 30.2 °F 19.8 °F 23.0 °F 75% 29.65 in 10.0 mi WNW 13.8 mph 27.6 mph N/A   Overcast
2:22 AM 30.2 °F 23.4 °F 23.0 °F 75% 29.66 in 10.0 mi West 6.9 mph 10.4 mph N/A   Overcast
2:42 AM 30.2 °F 22.6 °F 23.0 °F 75% 29.66 in 10.0 mi West 8.1 mph 20.7 mph N/A   Overcast
3:02 AM 30.2 °F 20.2 °F 23.0 °F 75% 29.66 in 10.0 mi WSW 12.7 mph 18.4 mph N/A   Overcast
3:22 AM 30.2 °F 19.3 °F 23.0 °F 75% 29.67 in 10.0 mi West 15.0 mph 23.0 mph N/A   Overcast
3:42 AM 30.2 °F 18.5 °F 21.2 °F 69% 29.67 in 10.0 mi West 17.3 mph 29.9 mph N/A   Overcast
4:02 AM 30.2 °F 17.8 °F 21.2 °F 69% 29.67 in 10.0 mi West 19.6 mph 33.4 mph N/A   Overcast
4:22 AM 28.4 °F 18.5 °F 21.2 °F 74% 29.66 in 10.0 mi West 11.5 mph 21.9 mph N/A   Mostly Cloudy
4:42 AM 28.4 °F 16.6 °F 19.4 °F 69% 29.66 in 10.0 mi West 16.1 mph 23.0 mph N/A   Mostly Cloudy
5:04 AM 28.4 °F 16.6 °F 19.4 °F 69% 29.65 in 10.0 mi West 16.1 mph 21.9 mph N/A   Scattered Clouds
5:22 AM 28.4 °F 19.1 °F 19.4 °F 69% 29.64 in 10.0 mi West 10.4 mph 16.1 mph N/A   Scattered Clouds
5:42 AM 28.4 °F 18.5 °F 19.4 °F 69% 29.65 in 10.0 mi West 11.5 mph 21.9 mph N/A   Clear
6:03 AM 28.4 °F 15.8 °F 19.4 °F 69% 29.66 in 10.0 mi West 18.4 mph 24.2 mph N/A   Scattered Clouds
6:22 AM 28.4 °F 15.4 °F 19.4 °F 69% 29.66 in 10.0 mi West 19.6 mph 25.3 mph N/A   Scattered Clouds
6:42 AM 28.4 °F 19.1 °F 19.4 °F 69% 29.68 in 10.0 mi West 10.4 mph 17.3 mph N/A   Clear
7:02 AM 28.4 °F 21.2 °F 19.4 °F 69% 29.69 in 10.0 mi West 6.9 mph 10.4 mph N/A   Scattered Clouds
7:22 AM 28.4 °F 19.7 °F 19.4 °F 69% 29.70 in 10.0 mi WSW 9.2 mph - N/A   Mostly Cloudy
7:42 AM 28.4 °F 18.0 °F 19.4 °F 69% 29.71 in 10.0 mi West 12.7 mph 24.2 mph N/A   Overcast
8:02 AM 28.4 °F 17.0 °F 19.4 °F 69% 29.72 in 10.0 mi West 15.0 mph 27.6 mph N/A   Overcast
8:24 AM 28.4 °F 17.0 °F 21.2 °F 74% 29.73 in 10.0 mi West 15.0 mph 25.3 mph N/A   Overcast
8:42 AM 28.4 °F 16.6 °F 19.4 °F 69% 29.74 in 10.0 mi West 16.1 mph 25.3 mph N/A   Overcast
9:02 AM 28.4 °F 17.5 °F 19.4 °F 69% 29.75 in 10.0 mi West 13.8 mph 23.0 mph N/A Snow Light Snow
9:22 AM 28.4 °F 15.8 °F 21.2 °F 74% 29.76 in 5.0 mi West 18.4 mph 25.3 mph N/A Snow Light Snow
9:42 AM 28.4 °F 16.6 °F 21.2 °F 74% 29.76 in 5.0 mi West 16.1 mph 27.6 mph N/A Snow Light Snow
10:02 AM 28.4 °F 16.6 °F 21.2 °F 74% 29.76 in 7.0 mi West 16.1 mph 25.3 mph N/A Snow Light Snow
10:22 AM 30.2 °F 20.2 °F 21.2 °F 69% 29.76 in 10.0 mi West 12.7 mph 24.2 mph N/A   Mostly Cloudy
10:42 AM 30.2 °F 19.3 °F 21.2 °F 69% 29.77 in 10.0 mi WSW 15.0 mph 25.3 mph N/A   Overcast
11:02 AM 32.0 °F 20.8 °F 21.2 °F 64% 29.77 in 10.0 mi West 17.3 mph 23.0 mph N/A   Overcast
11:24 AM 32.0 °F 22.1 °F 21.2 °F 64% 29.78 in 10.0 mi West 13.8 mph 24.2 mph N/A   Overcast
11:42 AM 32.0 °F 22.1 °F 21.2 °F 64% 29.79 in 7.0 mi West 13.8 mph 25.3 mph N/A Snow Light Snow
12:02 PM 32.0 °F 20.5 °F 21.2 °F 64% 29.78 in 5.0 mi West 18.4 mph 23.0 mph N/A Snow Light Snow
12:24 PM 30.2 °F 19.8 °F 21.2 °F 69% 29.78 in 5.0 mi West 13.8 mph 25.3 mph N/A Snow Light Snow
12:42 PM 30.2 °F 19.3 °F 21.2 °F 69% 29.77 in 7.0 mi West 15.0 mph 20.7 mph N/A Snow Light Snow
1:02 PM 30.2 °F 20.2 °F 19.4 °F 64% 29.77 in 7.0 mi West 12.7 mph 18.4 mph N/A Snow Light Snow
1:22 PM 30.2 °F 18.5 °F 21.2 °F 69% 29.78 in 7.0 mi West 17.3 mph 24.2 mph N/A Snow Light Snow
1:42 PM 30.2 °F 18.5 °F 21.2 °F 69% 29.79 in 4.0 mi West 17.3 mph 26.5 mph N/A Snow Light Snow
2:02 PM 30.2 °F 20.2 °F 21.2 °F 69% 29.79 in 5.0 mi WSW 12.7 mph 19.6 mph N/A Snow Light Snow
2:24 PM 30.2 °F 20.2 °F 21.2 °F 69% 29.80 in 4.0 mi West 12.7 mph 20.7 mph N/A Snow Light Snow
2:42 PM 30.2 °F 19.8 °F 21.2 °F 69% 29.81 in 3.0 mi West 13.8 mph 18.4 mph N/A Snow Light Snow
3:02 PM 28.4 °F 22.2 °F 23.0 °F 80% 29.82 in 3.0 mi WNW 5.8 mph 17.3 mph N/A Snow Light Snow
3:22 PM 30.2 °F 24.3 °F 24.8 °F 80% 29.82 in 1.8 mi WNW 5.8 mph - N/A Snow Light Snow
3:42 PM 28.4 °F 19.7 °F 23.0 °F 80% 29.83 in 2.5 mi West 9.2 mph 16.1 mph N/A Snow Light Snow
4:02 PM 28.4 °F 18.5 °F 23.0 °F 80% 29.84 in 2.5 mi WNW 11.5 mph 25.3 mph N/A Snow Light Snow
4:42 PM 28.4 °F 17.5 °F 23.0 °F 80% 29.86 in 1.8 mi WNW 13.8 mph 25.3 mph N/A Snow Light Snow
5:04 PM 28.4 °F 17.0 °F 23.0 °F 80% 29.87 in 1.8 mi West 15.0 mph 29.9 mph N/A Snow Light Snow
5:22 PM 28.4 °F 17.0 °F 23.0 °F 80% 29.88 in 0.8 mi West 15.0 mph 20.7 mph N/A Snow Light Snow
5:42 PM 28.4 °F 19.1 °F 23.0 °F 80% 29.89 in 2.0 mi WNW 10.4 mph 20.7 mph N/A Snow Light Snow
6:02 PM 26.6 °F 16.2 °F 23.0 °F 86% 29.89 in 1.8 mi WNW 11.5 mph 17.3 mph N/A Snow Light Snow
6:22 PM 26.6 °F 14.3 °F 23.0 °F 86% 29.90 in 2.5 mi WNW 16.1 mph 20.7 mph N/A Snow Light Snow
6:42 PM 28.4 °F 15.4 °F 21.2 °F 74% 29.91 in 7.0 mi WNW 19.6 mph 27.6 mph N/A Snow Light Snow
7:02 PM 26.6 °F 17.5 °F 23.0 °F 86% 29.92 in 3.0 mi West 9.2 mph 18.4 mph N/A Snow Light Snow
7:22 PM 26.6 °F 14.7 °F 23.0 °F 86% 29.92 in 2.0 mi WNW 15.0 mph 21.9 mph N/A Snow Light Snow
7:42 PM 26.6 °F 16.8 °F 21.2 °F 80% 29.93 in 3.0 mi NW 10.4 mph 20.7 mph N/A Snow Light Snow
8:02 PM 26.6 °F 16.2 °F 21.2 °F 80% 29.93 in 4.0 mi WNW 11.5 mph 18.4 mph N/A Snow Light Snow
8:22 PM 26.6 °F 16.8 °F 21.2 °F 80% 29.95 in 5.0 mi WNW 10.4 mph 25.3 mph N/A Snow Light Snow
8:42 PM 26.6 °F 16.8 °F 19.4 °F 74% 29.95 in 7.0 mi West 10.4 mph 27.6 mph N/A Snow Light Snow
9:04 PM 26.6 °F 14.7 °F 21.2 °F 80% 29.95 in 4.0 mi WNW 15.0 mph 21.9 mph N/A Snow Light Snow
9:22 PM 26.6 °F 18.2 °F 19.4 °F 74% 29.95 in 7.0 mi West 8.1 mph - N/A Snow Light Snow
9:42 PM 26.6 °F 17.5 °F 19.4 °F 74% 29.95 in 10.0 mi WNW 9.2 mph 18.4 mph N/A Snow Light Snow
10:02 PM 26.6 °F 16.8 °F 19.4 °F 74% 29.95 in 10.0 mi WNW 10.4 mph 16.1 mph N/A   Overcast
10:22 PM 26.6 °F 21.2 °F 19.4 °F 74% 29.95 in 10.0 mi WSW 4.6 mph - N/A   Overcast
10:42 PM 26.6 °F 22.6 °F 19.4 °F 74% 29.96 in 10.0 mi NW 3.5 mph 16.1 mph N/A   Overcast
11:02 PM 26.6 °F 15.2 °F 19.4 °F 74% 29.94 in 10.0 mi NW 13.8 mph 24.2 mph N/A   Overcast
11:22 PM 26.6 °F 19.1 °F 19.4 °F 74% 29.95 in 10.0 mi NW 6.9 mph - N/A   Overcast
11:42 PM 26.6 °F 20.0 °F 19.4 °F 74% 29.95 in 10.0 mi North 5.8 mph - N/A   Overcast